Location: Unspecified
(0.0000°N, 0.0000°E)
Time: 13:40:50
(UTC+00:00)

Tiangong - Visible Passes

Search period start: 02 February 2023 00:00
Search period end: 12 February 2023 00:00
Orbit: 383 x 386 km, 41.5° (Epoch: 02 February)

Date Brightness Start Highest point End Pass type
(mag) Time Alt. Az. Time Alt. Az. Time Alt. Az.
02 Feb 0.3 19:26:04 10° N 19:26:34 13° N 19:26:34 13° N visible
03 Feb 0.5 20:02:44 10° WNW 20:03:50 18° WNW 20:03:50 18° WNW visible
04 Feb -2.3 19:02:57 10° NW 19:06:04 69° NE 19:08:58 12° SE visible
05 Feb 1.0 19:41:17 10° WSW 19:43:07 14° SW 19:44:56 10° S visible
06 Feb 1.0 05:34:39 10° S 05:36:36 15° SE 05:38:34 10° E visible
06 Feb -0.4 18:40:29 10° WNW 18:43:24 36° SW 18:46:21 10° SSE visible
08 Feb -0.8 05:10:54 10° SSW 05:13:54 40° SE 05:16:53 10° ENE visible
09 Feb 1.1 04:14:52 15° ESE 04:14:52 15° ESE 04:16:08 10° E visible
10 Feb -1.2 04:52:03 38° NNE 04:52:03 38° NNE 04:54:11 10° NE visible
